Weather History for Mountain Home, AR

Change the Weather History Date:

Friday, December 23, 2011

  Actual Average (KHRO) Record (KHRO)
Temperature  
Mean Temperature 32 °F 36 °F  
Max Temperature 37 °F 46 °F 72 °F (1964)
Min Temperature 28 °F 27 °F -11 °F (1989)
Degree Days  
Heating Degree Days 32 29  
Month to date heating degree days 603  
Since 1 July heating degree days 1367  
Cooling Degree Days 0 0  
Month to date cooling degree days 0  
Year to date cooling degree days 1416  
Moisture  
Dew Point 29 °F    
Average Humidity 80    
Maximum Humidity 89    
Minimum Humidity 70    
Precipitation  
Precipitation 0.00 in 0.10 in 1.38 in (1979)
Month to date precipitation 2.45  
Year to date precipitation 43.39  
Snow  
Snow 0.00 in 0.10 in 13.00 in (1966)
Month to date snowfall 0.5  
Since 1 July snowfall 1.0  
Snow Depth -    
Sea Level Pressure  
Sea Level Pressure 30.38 in    
Wind  
Wind Speed 3 mph (NW)    
Max Wind Speed 6 mph    
Max Gust Speed -    
Visibility 8 miles    
Events      
T = Trace of Precipitation, MM = Missing Value Source: NWS Daily Summary

Daily Weather History Graph

Daily Weather History Graph

Search for Another Location

Airport:

Trip Planner

Search our weather history database for the weather conditions in past years. The results will help you decide how hot, cold, wet, or windy it might be!

Date:

Astronomy

Dec. 23, 2011 Rise Set
Actual Time 7:18 AM CST 4:59 PM CST
Civil Twilight 6:49 AM CST 5:28 PM CST
Nautical Twilight 6:17 AM CST 6:00 PM CST
Astronomical Twilight 5:46 AM CST 6:31 PM CST
Moon 6:08 AM CST (12/23) 4:08 PM CST (12/23)
Length of Visible Light 10h 38m
Length of Day
9h 40m
Waning Crescent, 1% of the Moon is Illuminated
Dec 23
Waning Crescent
Dec 24
New
Jan 1
First Quarter
Jan 9
Full
Jan 16
Last Quarter

Hourly Weather History & Observations

Time (CST) Temp. Windchill Dew Point Humidity Pressure Visibility Wind Dir Wind Speed Gust Speed Precip Events Conditions
12:53 AM 35.1 °F 31.0 °F 30.9 °F 85% 30.31 in 5.0 mi Variable 4.6 mph - N/A   Overcast
1:11 AM 35.6 °F 32.8 °F 30.2 °F 81% 30.29 in 6.0 mi NNW 3.5 mph - N/A   Overcast
1:38 AM 35.6 °F 32.8 °F 30.2 °F 81% 30.30 in 6.0 mi NNW 3.5 mph - N/A   Overcast
1:53 AM 36.0 °F - 30.0 °F 79% 30.32 in 6.0 mi Calm Calm - N/A   Haze
2:04 AM 35.6 °F - 30.2 °F 81% 30.31 in 6.0 mi Calm Calm - N/A   Haze
2:53 AM 36.0 °F 33.3 °F 30.9 °F 82% 30.34 in 7.0 mi NNW 3.5 mph - N/A   Overcast
3:53 AM 36.0 °F 33.3 °F 30.0 °F 79% 30.35 in 8.0 mi North 3.5 mph - N/A   Overcast
4:53 AM 36.0 °F 33.3 °F 28.9 °F 76% 30.36 in 9.0 mi NNW 3.5 mph - N/A   Overcast
5:53 AM 35.1 °F 31.0 °F 30.0 °F 82% 30.38 in 8.0 mi NNW 4.6 mph - N/A   Overcast
6:53 AM 35.1 °F 30.1 °F 30.0 °F 82% 30.39 in 8.0 mi NNW 5.8 mph - N/A   Overcast
7:53 AM 35.1 °F - 28.9 °F 78% 30.40 in 9.0 mi Calm Calm - N/A   Overcast
8:53 AM 35.1 °F 32.2 °F 28.0 °F 76% 30.43 in 9.0 mi North 3.5 mph - N/A   Overcast
9:53 AM 35.1 °F 31.0 °F 28.0 °F 76% 30.45 in 9.0 mi North 4.6 mph - N/A   Overcast
10:53 AM 35.1 °F 32.2 °F 28.9 °F 78% 30.45 in 9.0 mi North 3.5 mph - N/A   Overcast
12:13 PM 35.6 °F 32.8 °F 28.4 °F 75% 30.40 in 8.0 mi Variable 3.5 mph - N/A   Overcast
12:53 PM 35.1 °F 31.0 °F 30.0 °F 82% 30.41 in 8.0 mi NNW 4.6 mph - N/A   Overcast
1:53 PM 35.1 °F - 28.9 °F 78% 30.38 in 8.0 mi Calm Calm - N/A   Overcast
2:28 PM 35.6 °F 32.8 °F 28.4 °F 75% 30.37 in 9.0 mi Variable 3.5 mph - N/A   Overcast
2:53 PM 36.0 °F - 28.9 °F 76% 30.38 in 9.0 mi Calm Calm - N/A   Overcast
3:32 PM 35.6 °F - 28.4 °F 75% 30.36 in 9.0 mi Calm Calm - N/A   Scattered Clouds
3:53 PM 37.0 °F 33.3 °F 28.0 °F 70% 30.38 in 9.0 mi Variable 4.6 mph - N/A   Clear
4:53 PM 35.1 °F - 27.0 °F 72% 30.39 in 10.0 mi Calm Calm - N/A   Clear
5:53 PM 30.9 °F 27.5 °F 27.0 °F 85% 30.41 in 10.0 mi South 3.5 mph - N/A   Clear
6:53 PM 30.9 °F 27.5 °F 27.0 °F 85% 30.42 in 9.0 mi South 3.5 mph - N/A   Clear
7:53 PM 30.0 °F 25.2 °F 27.0 °F 88% 30.42 in 8.0 mi South 4.6 mph - N/A   Clear
8:53 PM 30.0 °F 25.2 °F 27.0 °F 88% 30.42 in 8.0 mi South 4.6 mph - N/A   Clear
9:53 PM 30.0 °F - 27.0 °F 88% 30.42 in 8.0 mi Calm Calm - N/A   Clear
10:53 PM 28.9 °F - 26.1 °F 89% 30.41 in 6.0 mi Calm Calm - N/A   Clear
11:53 PM 28.9 °F 25.2 °F 26.1 °F 89% 30.42 in 6.0 mi West 3.5 mph - N/A   Clear